Year,Month,Day,Hour,Minute,Value (Times are PST for temperature in C)
2005,06,07,00,00,13.00
2005,06,07,00,01,13.00
2005,06,07,00,02,13.00
2005,06,07,00,03,12.90
2005,06,07,00,04,12.90
2005,06,07,00,05,12.90
2005,06,07,00,06,12.90
2005,06,07,00,07,12.90
2005,06,07,00,08,12.90
2005,06,07,00,09,12.90
2005,06,07,00,10,12.90
2005,06,07,00,11,12.90
2005,06,07,00,12,12.90
2005,06,07,00,13,13.00
2005,06,07,00,14,13.00
2005,06,07,00,15,13.00
2005,06,07,00,16,13.00
2005,06,07,00,17,13.00
2005,06,07,00,18,13.00
2005,06,07,00,19,13.00
2005,06,07,00,20,13.00
2005,06,07,00,21,13.00
2005,06,07,00,22,13.00
2005,06,07,00,23,13.00
2005,06,07,00,24,12.90
2005,06,07,00,25,13.00
2005,06,07,00,26,13.00
2005,06,07,00,27,13.00
2005,06,07,00,28,13.00
2005,06,07,00,29,13.00
2005,06,07,00,30,12.90
2005,06,07,00,31,12.90
2005,06,07,00,32,12.90
2005,06,07,00,33,12.80
2005,06,07,00,34,12.80
2005,06,07,00,35,12.80
2005,06,07,00,36,12.80
2005,06,07,00,37,12.80
2005,06,07,00,38,12.80
2005,06,07,00,39,12.80
2005,06,07,00,40,12.80
2005,06,07,00,41,12.80
2005,06,07,00,42,12.80
2005,06,07,00,43,12.80
2005,06,07,00,44,12.80
2005,06,07,00,45,12.70
2005,06,07,00,46,12.70
2005,06,07,00,47,12.70
2005,06,07,00,48,12.60
2005,06,07,00,49,12.60
2005,06,07,00,50,12.60
2005,06,07,00,51,12.60
2005,06,07,00,52,12.60
2005,06,07,00,53,12.60
2005,06,07,00,54,12.50
2005,06,07,00,55,12.50
2005,06,07,00,56,12.60
2005,06,07,00,57,12.60
2005,06,07,00,58,12.60
2005,06,07,00,59,12.60
2005,06,07,01,00,12.50
2005,06,07,01,01,12.50
2005,06,07,01,02,12.50
2005,06,07,01,03,12.50
2005,06,07,01,04,12.60
2005,06,07,01,05,12.50
2005,06,07,01,06,12.50
2005,06,07,01,07,12.50
2005,06,07,01,08,12.50
2005,06,07,01,09,12.50
2005,06,07,01,10,12.50
2005,06,07,01,11,12.50
2005,06,07,01,12,12.50
2005,06,07,01,13,12.50
2005,06,07,01,14,12.50
2005,06,07,01,15,12.50
2005,06,07,01,16,12.50
2005,06,07,01,17,12.60
2005,06,07,01,18,12.60
2005,06,07,01,19,12.60
2005,06,07,01,20,12.60
2005,06,07,01,21,12.60
2005,06,07,01,22,12.60
2005,06,07,01,23,12.50
2005,06,07,01,24,12.50
2005,06,07,01,25,12.50
2005,06,07,01,26,12.40
2005,06,07,01,27,12.40
2005,06,07,01,28,12.40
2005,06,07,01,29,12.40
2005,06,07,01,30,12.40
2005,06,07,01,31,12.40
2005,06,07,01,32,12.30
2005,06,07,01,33,12.30
2005,06,07,01,34,12.30
2005,06,07,01,35,12.30
2005,06,07,01,36,12.30
2005,06,07,01,37,12.30
2005,06,07,01,38,12.30
2005,06,07,01,39,12.30
2005,06,07,01,40,12.30
2005,06,07,01,41,12.30
2005,06,07,01,42,12.40
2005,06,07,01,43,12.40
2005,06,07,01,44,12.40
2005,06,07,01,45,12.30
2005,06,07,01,46,12.30
2005,06,07,01,47,12.30
2005,06,07,01,48,12.30
2005,06,07,01,49,12.30
2005,06,07,01,50,12.30
2005,06,07,01,51,12.20
2005,06,07,01,52,12.20
2005,06,07,01,53,12.20
2005,06,07,01,54,12.10
2005,06,07,01,55,12.10
2005,06,07,01,56,12.10
2005,06,07,01,57,12.10
2005,06,07,01,58,12.10
2005,06,07,01,59,12.00
2005,06,07,02,00,12.00
2005,06,07,02,01,12.00
2005,06,07,02,02,12.00
2005,06,07,02,03,12.00
2005,06,07,02,04,12.00
2005,06,07,02,05,12.00
2005,06,07,02,06,11.90
2005,06,07,02,07,11.90
2005,06,07,02,08,11.90
2005,06,07,02,09,11.90
2005,06,07,02,10,11.90
2005,06,07,02,11,11.90
2005,06,07,02,12,11.90
2005,06,07,02,13,11.90
2005,06,07,02,14,11.90
2005,06,07,02,15,11.90
2005,06,07,02,16,11.90
2005,06,07,02,17,11.90
2005,06,07,02,18,11.80
2005,06,07,02,19,11.90
2005,06,07,02,20,11.90
2005,06,07,02,21,11.80
2005,06,07,02,22,11.80
2005,06,07,02,23,11.80
2005,06,07,02,24,11.80
2005,06,07,02,25,11.80
2005,06,07,02,26,11.80
2005,06,07,02,27,11.80
2005,06,07,02,28,11.80
2005,06,07,02,29,11.80
2005,06,07,02,30,11.70
2005,06,07,02,31,11.70
2005,06,07,02,32,11.70
2005,06,07,02,33,11.70
2005,06,07,02,34,11.70
2005,06,07,02,35,11.70
2005,06,07,02,36,11.70
2005,06,07,02,37,11.70
2005,06,07,02,38,11.70
2005,06,07,02,39,11.70
2005,06,07,02,40,11.70
2005,06,07,02,41,11.60
2005,06,07,02,42,11.60
2005,06,07,02,43,11.60
2005,06,07,02,44,11.60
2005,06,07,02,45,11.60
2005,06,07,02,46,11.60
2005,06,07,02,47,11.60
2005,06,07,02,48,11.50
2005,06,07,02,49,11.40
2005,06,07,02,50,11.40
2005,06,07,02,51,11.40
2005,06,07,02,52,11.40
2005,06,07,02,53,11.40
2005,06,07,02,54,11.40
2005,06,07,02,55,11.40
2005,06,07,02,56,11.40
2005,06,07,02,57,11.40
2005,06,07,02,58,11.40
2005,06,07,02,59,11.40
2005,06,07,03,00,11.40
2005,06,07,03,01,11.40
2005,06,07,03,02,11.40
2005,06,07,03,03,11.30
2005,06,07,03,04,11.30
2005,06,07,03,05,11.30
2005,06,07,03,06,11.30
2005,06,07,03,07,11.20
2005,06,07,03,08,11.20
2005,06,07,03,09,11.20
2005,06,07,03,10,11.20
2005,06,07,03,11,11.20
2005,06,07,03,12,11.20
2005,06,07,03,13,11.20
2005,06,07,03,14,11.20
2005,06,07,03,15,11.20
2005,06,07,03,16,11.20
2005,06,07,03,17,11.20
2005,06,07,03,18,11.20
2005,06,07,03,19,11.30
2005,06,07,03,20,11.30
2005,06,07,03,21,11.30
2005,06,07,03,22,11.30
2005,06,07,03,23,11.30
2005,06,07,03,24,11.30
2005,06,07,03,25,11.40
2005,06,07,03,26,11.40
2005,06,07,03,27,11.40
2005,06,07,03,28,11.40
2005,06,07,03,29,11.40
2005,06,07,03,30,11.50
2005,06,07,03,31,11.60
2005,06,07,03,32,11.60
2005,06,07,03,33,11.60
2005,06,07,03,34,11.60
2005,06,07,03,35,11.60
2005,06,07,03,36,11.70
2005,06,07,03,37,11.70
2005,06,07,03,38,11.80
2005,06,07,03,39,11.80
2005,06,07,03,40,11.80
2005,06,07,03,41,11.70
2005,06,07,03,42,11.70
2005,06,07,03,43,11.70
2005,06,07,03,44,11.70
2005,06,07,03,45,11.70
2005,06,07,03,46,11.70
2005,06,07,03,47,11.70
2005,06,07,03,48,11.80
2005,06,07,03,49,11.80
2005,06,07,03,50,11.80
2005,06,07,03,51,11.80
2005,06,07,03,52,11.70
2005,06,07,03,53,11.70
2005,06,07,03,54,11.70
2005,06,07,03,55,11.70
2005,06,07,03,56,11.70
2005,06,07,03,57,11.70
2005,06,07,03,58,11.70
2005,06,07,03,59,11.70
2005,06,07,04,00,11.70
2005,06,07,04,01,11.80
2005,06,07,04,02,11.80
2005,06,07,04,03,11.80
2005,06,07,04,04,11.80
2005,06,07,04,05,11.80
2005,06,07,04,06,11.80
2005,06,07,04,07,11.80
2005,06,07,04,08,11.80
2005,06,07,04,09,11.80
2005,06,07,04,10,11.80
2005,06,07,04,11,11.80
2005,06,07,04,12,11.80
2005,06,07,04,13,11.80
2005,06,07,04,14,11.80
2005,06,07,04,15,11.80
2005,06,07,04,16,11.70
2005,06,07,04,17,11.70
2005,06,07,04,18,11.70
2005,06,07,04,19,11.70
2005,06,07,04,20,11.70
2005,06,07,04,21,11.70
2005,06,07,04,22,11.70
2005,06,07,04,23,11.70
2005,06,07,04,24,11.80
2005,06,07,04,25,11.80
2005,06,07,04,26,11.80
2005,06,07,04,27,11.80
2005,06,07,04,28,11.80
2005,06,07,04,29,11.90
2005,06,07,04,30,11.90
2005,06,07,04,31,11.90
2005,06,07,04,32,11.90
2005,06,07,04,33,11.90
2005,06,07,04,34,11.90
2005,06,07,04,35,11.90
2005,06,07,04,36,11.90
2005,06,07,04,37,11.80
2005,06,07,04,38,11.80
2005,06,07,04,39,11.80
2005,06,07,04,40,11.80
2005,06,07,04,41,11.80
2005,06,07,04,42,11.80
2005,06,07,04,43,11.80
2005,06,07,04,44,11.80
2005,06,07,04,45,11.80
2005,06,07,04,46,11.80
2005,06,07,04,47,11.90
2005,06,07,04,48,11.90
2005,06,07,04,49,11.90
2005,06,07,04,50,11.90
2005,06,07,04,51,11.90
2005,06,07,04,52,11.90
2005,06,07,04,53,12.00
2005,06,07,04,54,12.00
2005,06,07,04,55,12.00
2005,06,07,04,56,12.00
2005,06,07,04,57,11.90
2005,06,07,04,58,11.90
2005,06,07,04,59,11.90
2005,06,07,05,00,11.90
2005,06,07,05,01,11.90
2005,06,07,05,02,11.80
2005,06,07,05,03,11.80
2005,06,07,05,04,11.80
2005,06,07,05,05,11.80
2005,06,07,05,06,11.80
2005,06,07,05,07,11.70
2005,06,07,05,08,11.70
2005,06,07,05,09,11.70
2005,06,07,05,10,11.60
2005,06,07,05,11,11.60
2005,06,07,05,12,11.60
2005,06,07,05,13,11.60
2005,06,07,05,14,11.60
2005,06,07,05,15,11.60
2005,06,07,05,16,11.60
2005,06,07,05,17,11.50
2005,06,07,05,18,11.40
2005,06,07,05,19,11.40
2005,06,07,05,20,11.40
2005,06,07,05,21,11.40
2005,06,07,05,22,11.40
2005,06,07,05,23,11.40
2005,06,07,05,24,11.40
2005,06,07,05,25,11.30
2005,06,07,05,26,11.30
2005,06,07,05,27,11.30
2005,06,07,05,28,11.30
2005,06,07,05,29,11.30
2005,06,07,05,30,11.20
2005,06,07,05,31,11.30
2005,06,07,05,32,11.30
2005,06,07,05,33,11.40
2005,06,07,05,34,11.40
2005,06,07,05,35,11.30
2005,06,07,05,36,11.30
2005,06,07,05,37,11.30
2005,06,07,05,38,11.40
2005,06,07,05,39,11.40
2005,06,07,05,40,11.30
2005,06,07,05,41,11.30
2005,06,07,05,42,11.30
2005,06,07,05,43,11.40
2005,06,07,05,44,11.40
2005,06,07,05,45,11.40
2005,06,07,05,46,11.40
2005,06,07,05,47,11.30
2005,06,07,05,48,11.30
2005,06,07,05,49,11.30
2005,06,07,05,50,11.20
2005,06,07,05,51,11.20
2005,06,07,05,52,11.20
2005,06,07,05,53,11.20
2005,06,07,05,54,11.20
2005,06,07,05,55,11.20
2005,06,07,05,56,11.10
2005,06,07,05,57,11.10
2005,06,07,05,58,11.10
2005,06,07,05,59,11.10
2005,06,07,06,00,11.10
2005,06,07,06,01,11.10
2005,06,07,06,02,11.00
2005,06,07,06,03,10.90
2005,06,07,06,04,10.90
2005,06,07,06,05,10.90
2005,06,07,06,06,10.90
2005,06,07,06,07,10.80
2005,06,07,06,08,10.80
2005,06,07,06,09,10.70
2005,06,07,06,10,10.60
2005,06,07,06,11,10.60
2005,06,07,06,12,10.70
2005,06,07,06,13,10.70
2005,06,07,06,14,10.60
2005,06,07,06,15,10.60
2005,06,07,06,16,10.60
2005,06,07,06,17,10.60
2005,06,07,06,18,10.60
2005,06,07,06,19,10.60
2005,06,07,06,20,10.60
2005,06,07,06,21,10.60
2005,06,07,06,22,10.60
2005,06,07,06,23,10.60
2005,06,07,06,24,10.60
2005,06,07,06,25,10.60
2005,06,07,06,26,10.60
2005,06,07,06,27,10.60
2005,06,07,06,28,10.60
2005,06,07,06,29,10.60
2005,06,07,06,30,10.60
2005,06,07,06,31,10.60
2005,06,07,06,32,10.70
2005,06,07,06,33,10.70
2005,06,07,06,34,10.80
2005,06,07,06,35,10.80
2005,06,07,06,36,10.90
2005,06,07,06,37,10.90
2005,06,07,06,38,11.00
2005,06,07,06,39,11.10
2005,06,07,06,40,11.10
2005,06,07,06,41,11.10
2005,06,07,06,42,11.20
2005,06,07,06,43,11.30
2005,06,07,06,44,11.30
2005,06,07,06,45,11.30
2005,06,07,06,46,11.30
2005,06,07,06,47,11.40
2005,06,07,06,48,11.40
2005,06,07,06,49,11.40
2005,06,07,06,50,11.40
2005,06,07,06,51,11.40
2005,06,07,06,52,11.40
2005,06,07,06,53,11.40
2005,06,07,06,54,11.40
2005,06,07,06,55,11.40
2005,06,07,06,56,11.40
2005,06,07,06,57,11.40
2005,06,07,06,58,11.50
2005,06,07,06,59,11.60
2005,06,07,07,00,11.60
2005,06,07,07,01,11.60
2005,06,07,07,02,11.70
2005,06,07,07,03,11.70
2005,06,07,07,04,11.70
2005,06,07,07,05,11.70
2005,06,07,07,06,11.70
2005,06,07,07,07,11.80
2005,06,07,07,08,11.80
2005,06,07,07,09,11.90
2005,06,07,07,10,11.90
2005,06,07,07,11,11.90
2005,06,07,07,12,12.00
2005,06,07,07,13,12.00
2005,06,07,07,14,12.10
2005,06,07,07,15,12.10
2005,06,07,07,16,12.20
2005,06,07,07,17,12.20
2005,06,07,07,18,12.20
2005,06,07,07,19,12.30
2005,06,07,07,20,12.30
2005,06,07,07,21,12.20
2005,06,07,07,22,12.20
2005,06,07,07,23,12.30
2005,06,07,07,24,12.30
2005,06,07,07,25,12.30
2005,06,07,07,26,12.30
2005,06,07,07,27,12.30
2005,06,07,07,28,12.40
2005,06,07,07,29,12.30
2005,06,07,07,30,12.40
2005,06,07,07,31,12.40
2005,06,07,07,32,12.50
2005,06,07,07,33,12.50
2005,06,07,07,34,12.50
2005,06,07,07,35,12.50
2005,06,07,07,36,12.50
2005,06,07,07,37,12.50
2005,06,07,07,38,12.50
2005,06,07,07,39,12.60
2005,06,07,07,40,12.70
2005,06,07,07,41,12.70
2005,06,07,07,42,12.70
2005,06,07,07,43,12.70
2005,06,07,07,44,12.80
2005,06,07,07,45,12.80
2005,06,07,07,46,12.80
2005,06,07,07,47,12.80
2005,06,07,07,48,12.90
2005,06,07,07,49,12.90
2005,06,07,07,50,12.90
2005,06,07,07,51,12.90
2005,06,07,07,52,13.00
2005,06,07,07,53,13.00
2005,06,07,07,54,13.10
2005,06,07,07,55,13.10
2005,06,07,07,56,13.10
2005,06,07,07,57,13.20
2005,06,07,07,58,13.30
2005,06,07,07,59,13.30
2005,06,07,08,00,13.40
2005,06,07,08,01,13.40
2005,06,07,08,02,13.40
2005,06,07,08,03,13.50
2005,06,07,08,04,13.50
2005,06,07,08,05,13.60
2005,06,07,08,06,13.70
2005,06,07,08,07,13.70
2005,06,07,08,08,13.70
2005,06,07,08,09,13.70
2005,06,07,08,10,13.70
2005,06,07,08,11,13.70
2005,06,07,08,12,13.70
2005,06,07,08,13,13.70
2005,06,07,08,14,13.80
2005,06,07,08,15,13.90
2005,06,07,08,16,14.00
2005,06,07,08,17,14.10
2005,06,07,08,18,14.20
2005,06,07,08,19,14.30
2005,06,07,08,20,14.50
2005,06,07,08,21,14.60
2005,06,07,08,22,14.70
2005,06,07,08,23,14.80
2005,06,07,08,24,14.80
2005,06,07,08,25,14.90
2005,06,07,08,26,14.90
2005,06,07,08,27,15.00
2005,06,07,08,28,15.00
2005,06,07,08,29,15.00
2005,06,07,08,30,15.10
2005,06,07,08,31,15.00
2005,06,07,08,32,15.00
2005,06,07,08,33,15.10
2005,06,07,08,34,15.10
2005,06,07,08,35,15.00
2005,06,07,08,36,15.00
2005,06,07,08,37,15.10
2005,06,07,08,38,15.20
2005,06,07,08,39,15.30
2005,06,07,08,40,15.30
2005,06,07,08,41,15.30
2005,06,07,08,42,15.40
2005,06,07,08,43,15.40
2005,06,07,08,44,15.30
2005,06,07,08,45,15.20
2005,06,07,08,46,15.00
2005,06,07,08,47,14.80
2005,06,07,08,48,14.80
2005,06,07,08,49,14.60
2005,06,07,08,50,14.50
2005,06,07,08,51,14.30
2005,06,07,08,52,14.20
2005,06,07,08,53,14.00
2005,06,07,08,54,13.80
2005,06,07,08,55,13.60
2005,06,07,08,56,13.40
2005,06,07,08,57,13.30
2005,06,07,08,58,13.30
2005,06,07,08,59,13.30
2005,06,07,09,00,13.30
2005,06,07,09,01,13.30
2005,06,07,09,02,13.30
2005,06,07,09,03,13.40
2005,06,07,09,04,13.40
2005,06,07,09,05,13.40
2005,06,07,09,06,13.30
2005,06,07,09,07,13.30
2005,06,07,09,08,13.20
2005,06,07,09,09,13.20
2005,06,07,09,10,13.20
2005,06,07,09,11,13.20
2005,06,07,09,12,13.10
2005,06,07,09,13,13.00
2005,06,07,09,14,12.90
2005,06,07,09,15,12.80
2005,06,07,09,16,12.80
2005,06,07,09,17,12.80
2005,06,07,09,18,12.80
2005,06,07,09,19,12.80
2005,06,07,09,20,12.80
2005,06,07,09,21,12.90
2005,06,07,09,22,13.00
2005,06,07,09,23,13.10
2005,06,07,09,24,13.10
2005,06,07,09,25,13.10
2005,06,07,09,26,13.20
2005,06,07,09,27,13.30
2005,06,07,09,28,13.40
2005,06,07,09,29,13.40
2005,06,07,09,30,13.40
2005,06,07,09,31,13.40
2005,06,07,09,32,13.50
2005,06,07,09,33,13.50
2005,06,07,09,34,13.50
2005,06,07,09,35,13.50
2005,06,07,09,36,13.40
2005,06,07,09,37,13.40
2005,06,07,09,38,13.40
2005,06,07,09,39,13.30
2005,06,07,09,40,13.40
2005,06,07,09,41,13.30
2005,06,07,09,42,13.30
2005,06,07,09,43,13.30
2005,06,07,09,44,13.30
2005,06,07,09,45,13.30
2005,06,07,09,46,13.40
2005,06,07,09,47,13.40
2005,06,07,09,48,13.40
2005,06,07,09,49,13.40
2005,06,07,09,50,13.30
2005,06,07,09,51,13.30
2005,06,07,09,52,13.40
2005,06,07,09,53,13.40
2005,06,07,09,54,13.40
2005,06,07,09,55,13.40
2005,06,07,09,56,13.50
2005,06,07,09,57,13.50
2005,06,07,09,58,13.60
2005,06,07,09,59,13.60
2005,06,07,10,00,13.70
2005,06,07,10,01,13.70
2005,06,07,10,02,13.70
2005,06,07,10,03,13.70
2005,06,07,10,04,13.70
2005,06,07,10,05,13.70
2005,06,07,10,06,13.70
2005,06,07,10,07,13.70
2005,06,07,10,08,13.70
2005,06,07,10,09,13.80
2005,06,07,10,10,13.90
2005,06,07,10,11,14.00
2005,06,07,10,12,14.10
2005,06,07,10,13,14.20
2005,06,07,10,14,14.20
2005,06,07,10,15,14.30
2005,06,07,10,16,14.40
2005,06,07,10,17,14.50
2005,06,07,10,18,14.50
2005,06,07,10,19,14.60
2005,06,07,10,20,14.70
2005,06,07,10,21,14.70
2005,06,07,10,22,14.80
2005,06,07,10,23,14.90
2005,06,07,10,24,14.90
2005,06,07,10,25,14.80
2005,06,07,10,26,14.80
2005,06,07,10,27,14.90
2005,06,07,10,28,15.00
2005,06,07,10,29,14.90
2005,06,07,10,30,15.00
2005,06,07,10,31,15.10
2005,06,07,10,32,15.20
2005,06,07,10,33,15.30
2005,06,07,10,34,15.40
2005,06,07,10,35,15.40
2005,06,07,10,36,15.40
2005,06,07,10,37,15.50
2005,06,07,10,38,15.50
2005,06,07,10,39,15.50
2005,06,07,10,40,15.50
2005,06,07,10,41,15.60
2005,06,07,10,42,15.60
2005,06,07,10,43,15.60
2005,06,07,10,44,15.60
2005,06,07,10,45,15.50
2005,06,07,10,46,15.50
2005,06,07,10,47,15.50
2005,06,07,10,48,15.40
2005,06,07,10,49,15.30
2005,06,07,10,50,15.30
2005,06,07,10,51,15.50
2005,06,07,10,52,15.60
2005,06,07,10,53,15.80
2005,06,07,10,54,16.10
2005,06,07,10,55,16.30
2005,06,07,10,56,16.40
2005,06,07,10,57,16.50
2005,06,07,10,58,16.50
2005,06,07,10,59,16.70
2005,06,07,11,00,16.80
2005,06,07,11,01,16.90
2005,06,07,11,02,16.90
2005,06,07,11,03,16.80
2005,06,07,11,04,16.80
2005,06,07,11,05,16.80
2005,06,07,11,06,16.80
2005,06,07,11,07,16.80
2005,06,07,11,08,16.80
2005,06,07,11,09,16.90
2005,06,07,11,10,16.90
2005,06,07,11,11,16.90
2005,06,07,11,12,17.00
2005,06,07,11,13,17.00
2005,06,07,11,14,17.10
2005,06,07,11,15,17.00
2005,06,07,11,16,17.20
2005,06,07,11,17,17.00
2005,06,07,11,18,16.90
2005,06,07,11,19,16.80
2005,06,07,11,20,16.80
2005,06,07,11,21,17.00
2005,06,07,11,22,17.00
2005,06,07,11,23,17.10
2005,06,07,11,24,17.30
2005,06,07,11,25,17.30
2005,06,07,11,26,17.30
2005,06,07,11,27,17.30
2005,06,07,11,28,17.30
2005,06,07,11,29,17.30
2005,06,07,11,30,17.10
2005,06,07,11,31,17.00
2005,06,07,11,32,17.00
2005,06,07,11,33,17.10
2005,06,07,11,34,17.10
2005,06,07,11,35,17.10
2005,06,07,11,36,17.20
2005,06,07,11,37,17.20
2005,06,07,11,38,17.30
2005,06,07,11,39,17.30
2005,06,07,11,40,17.30
2005,06,07,11,41,17.30
2005,06,07,11,42,17.40
2005,06,07,11,43,17.50
2005,06,07,11,44,17.50
2005,06,07,11,45,17.60
2005,06,07,11,46,17.70
2005,06,07,11,47,17.70
2005,06,07,11,48,17.80
2005,06,07,11,49,17.80
2005,06,07,11,50,17.90
2005,06,07,11,51,17.80
2005,06,07,11,52,17.70
2005,06,07,11,53,17.80
2005,06,07,11,54,17.80
2005,06,07,11,55,17.90
2005,06,07,11,56,17.90
2005,06,07,11,57,17.80
2005,06,07,11,58,17.70
2005,06,07,11,59,17.60
2005,06,07,12,00,17.60
2005,06,07,12,01,17.60
2005,06,07,12,02,17.60
2005,06,07,12,03,17.50
2005,06,07,12,04,17.50
2005,06,07,12,05,17.50
2005,06,07,12,06,17.60
2005,06,07,12,07,17.60
2005,06,07,12,08,17.60
2005,06,07,12,09,17.70
2005,06,07,12,10,17.50
2005,06,07,12,11,17.50
2005,06,07,12,12,17.50
2005,06,07,12,13,17.60
2005,06,07,12,14,17.60
2005,06,07,12,15,17.60
2005,06,07,12,16,17.50
2005,06,07,12,17,17.70
2005,06,07,12,18,17.70
2005,06,07,12,19,17.70
2005,06,07,12,20,17.60
2005,06,07,12,21,17.70
2005,06,07,12,22,17.70
2005,06,07,12,23,17.70
2005,06,07,12,24,17.70
2005,06,07,12,25,17.90
2005,06,07,12,26,17.90
2005,06,07,12,27,17.90
2005,06,07,12,28,18.00
2005,06,07,12,29,18.10
2005,06,07,12,30,18.00
2005,06,07,12,31,18.10
2005,06,07,12,32,18.10
2005,06,07,12,33,18.20
2005,06,07,12,34,18.30
2005,06,07,12,35,18.40
2005,06,07,12,36,18.40
2005,06,07,12,37,18.40
2005,06,07,12,38,18.20
2005,06,07,12,39,18.00
2005,06,07,12,40,18.20
2005,06,07,12,41,18.20
2005,06,07,12,42,18.20
2005,06,07,12,43,18.10
2005,06,07,12,44,18.20
2005,06,07,12,45,18.20
2005,06,07,12,46,18.50
2005,06,07,12,47,18.50
2005,06,07,12,48,18.50
2005,06,07,12,49,18.50
2005,06,07,12,50,18.50
2005,06,07,12,51,18.50
2005,06,07,12,52,18.50
2005,06,07,12,53,18.40
2005,06,07,12,54,18.40
2005,06,07,12,55,18.60
2005,06,07,12,56,18.70
2005,06,07,12,57,18.80
2005,06,07,12,58,18.90
2005,06,07,12,59,19.00
2005,06,07,13,00,18.80
2005,06,07,13,01,19.00
2005,06,07,13,02,19.10
2005,06,07,13,03,19.20
2005,06,07,13,04,19.30
2005,06,07,13,05,19.20
2005,06,07,13,06,19.10
2005,06,07,13,07,19.20
2005,06,07,13,08,19.20
2005,06,07,13,09,19.20
2005,06,07,13,10,19.30
2005,06,07,13,11,19.30
2005,06,07,13,12,19.30
2005,06,07,13,13,19.40
2005,06,07,13,14,19.60
2005,06,07,13,15,19.60
2005,06,07,13,16,19.60
2005,06,07,13,17,19.60
2005,06,07,13,18,19.70
2005,06,07,13,19,19.70
2005,06,07,13,20,19.70
2005,06,07,13,21,19.70
2005,06,07,13,22,19.40
2005,06,07,13,23,19.30
2005,06,07,13,24,19.00
2005,06,07,13,25,19.20
2005,06,07,13,26,19.20
2005,06,07,13,27,19.10
2005,06,07,13,28,19.10
2005,06,07,13,29,19.00
2005,06,07,13,30,18.80
2005,06,07,13,31,18.70
2005,06,07,13,32,18.60
2005,06,07,13,33,18.70
2005,06,07,13,34,18.60
2005,06,07,13,35,18.60
2005,06,07,13,36,18.60
2005,06,07,13,37,18.50
2005,06,07,13,38,18.50
2005,06,07,13,39,18.50
2005,06,07,13,40,18.50
2005,06,07,13,41,18.40
2005,06,07,13,42,18.40
2005,06,07,13,43,18.40
2005,06,07,13,44,18.50
2005,06,07,13,45,18.40
2005,06,07,13,46,18.40
2005,06,07,13,47,18.40
2005,06,07,13,48,18.40
2005,06,07,13,49,18.40
2005,06,07,13,50,18.30
2005,06,07,13,51,18.30
2005,06,07,13,52,18.40
2005,06,07,13,53,18.40
2005,06,07,13,54,18.40
2005,06,07,13,55,18.40
2005,06,07,13,56,18.40
2005,06,07,13,57,18.30
2005,06,07,13,58,18.40
2005,06,07,13,59,18.40
2005,06,07,14,00,18.40
2005,06,07,14,01,18.40
2005,06,07,14,02,18.50
2005,06,07,14,03,18.60
2005,06,07,14,04,18.60
2005,06,07,14,05,18.70
2005,06,07,14,06,18.90
2005,06,07,14,07,18.90
2005,06,07,14,08,19.00
2005,06,07,14,09,19.00
2005,06,07,14,10,18.90
2005,06,07,14,11,18.90
2005,06,07,14,12,18.90
2005,06,07,14,13,18.80
2005,06,07,14,14,18.50
2005,06,07,14,15,18.60
2005,06,07,14,16,18.60
2005,06,07,14,17,18.50
2005,06,07,14,18,18.40
2005,06,07,14,19,18.30
2005,06,07,14,20,18.30
2005,06,07,14,21,18.40
2005,06,07,14,22,18.40
2005,06,07,14,23,18.40
2005,06,07,14,24,18.50
2005,06,07,14,25,18.50
2005,06,07,14,26,18.50
2005,06,07,14,27,18.40
2005,06,07,14,28,18.20
2005,06,07,14,29,18.20
2005,06,07,14,30,18.20
2005,06,07,14,31,18.40
2005,06,07,14,32,18.30
2005,06,07,14,33,18.30
2005,06,07,14,34,18.40
2005,06,07,14,35,18.30
2005,06,07,14,36,18.40
2005,06,07,14,37,18.50
2005,06,07,14,38,18.40
2005,06,07,14,39,18.10
2005,06,07,14,40,18.30
2005,06,07,14,41,18.30
2005,06,07,14,42,18.40
2005,06,07,14,43,18.40
2005,06,07,14,44,18.50
2005,06,07,14,45,18.50
2005,06,07,14,46,18.40
2005,06,07,14,47,18.50
2005,06,07,14,48,18.50
2005,06,07,14,49,18.40
2005,06,07,14,50,18.50
2005,06,07,14,51,18.50
2005,06,07,14,52,18.50
2005,06,07,14,53,18.50
2005,06,07,14,54,18.50
2005,06,07,14,55,18.50
2005,06,07,14,56,18.40
2005,06,07,14,57,18.50
2005,06,07,14,58,18.50
2005,06,07,14,59,18.50
2005,06,07,15,00,18.60
2005,06,07,15,01,18.60
2005,06,07,15,02,18.30
2005,06,07,15,03,18.30
2005,06,07,15,04,18.30
2005,06,07,15,05,18.20
2005,06,07,15,06,18.40
2005,06,07,15,07,18.50
2005,06,07,15,08,18.60
2005,06,07,15,09,18.70
2005,06,07,15,10,18.70
2005,06,07,15,11,18.90
2005,06,07,15,12,18.90
2005,06,07,15,13,18.90
2005,06,07,15,14,18.90
2005,06,07,15,15,18.60
2005,06,07,15,16,18.50
2005,06,07,15,17,18.40
2005,06,07,15,18,18.50
2005,06,07,15,19,18.30
2005,06,07,15,20,18.40
2005,06,07,15,21,18.30
2005,06,07,15,22,18.20
2005,06,07,15,23,18.20
2005,06,07,15,24,18.20
2005,06,07,15,25,18.20
2005,06,07,15,26,18.20
2005,06,07,15,27,18.10
2005,06,07,15,28,18.10
2005,06,07,15,29,18.00
2005,06,07,15,30,18.00
2005,06,07,15,31,17.90
2005,06,07,15,32,18.00
2005,06,07,15,33,17.90
2005,06,07,15,34,17.80
2005,06,07,15,35,17.90
2005,06,07,15,36,18.00
2005,06,07,15,37,18.00
2005,06,07,15,38,18.00
2005,06,07,15,39,18.10
2005,06,07,15,40,18.10
2005,06,07,15,41,18.00
2005,06,07,15,42,17.90
2005,06,07,15,43,17.80
2005,06,07,15,44,17.90
2005,06,07,15,45,17.70
2005,06,07,15,46,17.70
2005,06,07,15,47,17.80
2005,06,07,15,48,17.70
2005,06,07,15,49,17.80
2005,06,07,15,50,17.80
2005,06,07,15,51,17.80
2005,06,07,15,52,17.70
2005,06,07,15,53,17.50
2005,06,07,15,54,17.50
2005,06,07,15,55,17.50
2005,06,07,15,56,17.50
2005,06,07,15,57,17.60
2005,06,07,15,58,17.50
2005,06,07,15,59,17.50
2005,06,07,16,00,17.50
2005,06,07,16,01,17.50
2005,06,07,16,02,17.50
2005,06,07,16,03,17.40
2005,06,07,16,04,17.50
2005,06,07,16,05,17.50
2005,06,07,16,06,17.40
2005,06,07,16,07,17.40
2005,06,07,16,08,17.40
2005,06,07,16,09,17.30
2005,06,07,16,10,17.30
2005,06,07,16,11,17.30
2005,06,07,16,12,17.30
2005,06,07,16,13,17.30
2005,06,07,16,14,17.20
2005,06,07,16,15,17.10
2005,06,07,16,16,17.10
2005,06,07,16,17,17.10
2005,06,07,16,18,17.10
2005,06,07,16,19,17.10
2005,06,07,16,20,17.20
2005,06,07,16,21,17.20
2005,06,07,16,22,17.20
2005,06,07,16,23,17.30
2005,06,07,16,24,17.30
2005,06,07,16,25,17.20
2005,06,07,16,26,17.30
2005,06,07,16,27,17.30
2005,06,07,16,28,17.20
2005,06,07,16,29,17.00
2005,06,07,16,30,17.00
2005,06,07,16,31,16.90
2005,06,07,16,32,16.90
2005,06,07,16,33,16.90
2005,06,07,16,34,17.10
2005,06,07,16,35,17.20
2005,06,07,16,36,17.10
2005,06,07,16,37,17.10
2005,06,07,16,38,17.00
2005,06,07,16,39,17.00
2005,06,07,16,40,16.90
2005,06,07,16,41,16.80
2005,06,07,16,42,16.60
2005,06,07,16,43,16.70
2005,06,07,16,44,16.70
2005,06,07,16,45,16.60
2005,06,07,16,46,16.50
2005,06,07,16,47,16.60
2005,06,07,16,48,16.50
2005,06,07,16,49,16.40
2005,06,07,16,50,16.40
2005,06,07,16,51,16.30
2005,06,07,16,52,16.20
2005,06,07,16,53,16.20
2005,06,07,16,54,16.10
2005,06,07,16,55,16.10
2005,06,07,16,56,16.10
2005,06,07,16,57,16.10
2005,06,07,16,58,16.10
2005,06,07,16,59,16.10
2005,06,07,17,00,16.30
2005,06,07,17,01,16.30
2005,06,07,17,02,16.40
2005,06,07,17,03,16.40
2005,06,07,17,04,16.30
2005,06,07,17,05,16.30
2005,06,07,17,06,16.30
2005,06,07,17,07,16.40
2005,06,07,17,08,16.40
2005,06,07,17,09,16.30
2005,06,07,17,10,16.30
2005,06,07,17,11,16.20
2005,06,07,17,12,16.20
2005,06,07,17,13,16.10
2005,06,07,17,14,16.20
2005,06,07,17,15,16.30
2005,06,07,17,16,16.30
2005,06,07,17,17,16.20
2005,06,07,17,18,16.10
2005,06,07,17,19,16.10